Tracking 29892 objects as of 21-Nov-2024
HD Live streaming from Space Station
objects crossing your sky now

FENGYUN 1C DEB

Track FENGYUN 1C DEB now!
10-day predictions


NORAD ID: 29740
Int'l Code: 1999-025AE
Perigee: 863.4 km
Apogee: 2,449.0 km
Inclination: 99.1 °
Period: 119.3 minutes
Semi major axis: 8027 km
RCS: 0.0682 m2 (small)
Launch date: May 10, 1999
Source: People's Republic of China (PRC)
Launch site: Taiyaun Space Center, China (TSC)

Note: This is SATELLITE DEBRIS
Your satellite tracking list
Your tracking list is empty




NASA's NSSDC Master Catalog

Two Line Element Set (TLE):
1 29740U 99025AE  24325.84934935  .00000043  00000-0  19046-3 0  9998
2 29740  99.0593 281.5805 0987651 249.1220 100.1445 12.07147237782640
Source of the keplerian elements: AFSPC